RYR550 EGKK-EDDH

Flight info

Callsign RYR550
Flight time 1h 19m
Altitude 37000
Route FRANE M604 PAAVO Q295 SOMVA DCT MAVAS DCT TULIP Y12 SPY N873 ANDIK M105 RIBSO RIBSO3P
Aircraft B38M/M-SDE1FGHILORVWXY/HB1

Departure

Time 2026-04-22 22:10
Airport London Gatwick Airport (EGKK)

Arrival

Time 2026-04-22 23:29
Airport Hamburg Helmut Schmidt Airport (EDDH)
Time Latitude Longitude Altitude Speed Heading
2026-04-22 21:25 51.15316 -0.17930 208 ft 0 kts 347°
2026-04-22 21:57 51.15300 -0.17924 216 ft 5 kts 347°
2026-04-22 21:58 51.15271 -0.17914 211 ft 3 kts 347°
2026-04-22 21:58 51.15254 -0.17900 215 ft 3 kts 302°
2026-04-22 21:58 51.15247 -0.17871 212 ft 3 kts 285°
2026-04-22 21:58 51.15245 -0.17862 211 ft 0 kts 264°
2026-04-22 22:02 51.15245 -0.17864 209 ft 1 kts 264°
2026-04-22 22:02 51.15245 -0.17872 217 ft 2 kts 263°
2026-04-22 22:02 51.15239 -0.17911 213 ft 6 kts 256°
2026-04-22 22:02 51.15226 -0.17999 214 ft 10 kts 257°
2026-04-22 22:03 51.15205 -0.18149 208 ft 18 kts 257°
2026-04-22 22:03 51.15174 -0.18393 210 ft 26 kts 259°
2026-04-22 22:03 51.15133 -0.18715 207 ft 32 kts 258°
2026-04-22 22:03 51.15085 -0.19067 212 ft 33 kts 258°
2026-04-22 22:04 51.15034 -0.19438 212 ft 35 kts 257°
2026-04-22 22:04 51.14980 -0.19830 210 ft 37 kts 258°
2026-04-22 22:04 51.14922 -0.20245 205 ft 39 kts 257°
2026-04-22 22:04 51.14876 -0.20581 209 ft 15 kts 257°
2026-04-22 22:05 51.14862 -0.20681 204 ft 11 kts 257°
2026-04-22 22:05 51.14838 -0.20858 209 ft 22 kts 258°
2026-04-22 22:05 51.14802 -0.21121 205 ft 9 kts 251°
2026-04-22 22:05 51.14775 -0.21249 204 ft 18 kts 256°
2026-04-22 22:06 51.14732 -0.21399 206 ft 11 kts 194°
2026-04-22 22:06 51.14680 -0.21377 212 ft 8 kts 142°
2026-04-22 22:06 51.14640 -0.21330 208 ft 5 kts 174°
2026-04-22 22:06 51.14617 -0.21323 208 ft 0 kts 168°
2026-04-22 22:08 51.14616 -0.21323 209 ft 0 kts 168°
2026-04-22 22:08 51.14615 -0.21323 209 ft 1 kts 168°
2026-04-22 22:08 51.14562 -0.21292 213 ft 14 kts 148°
2026-04-22 22:09 51.14522 -0.21124 207 ft 20 kts 83°
2026-04-22 22:09 51.14554 -0.20875 213 ft 26 kts 77°
2026-04-22 22:09 51.14597 -0.20565 217 ft 55 kts 77°
2026-04-22 22:09 51.14740 -0.19529 211 ft 134 kts 77°
2026-04-22 22:10 51.14982 -0.17737 329 ft 188 kts 78°
2026-04-22 22:10 51.15246 -0.15563 974 ft 207 kts 79°
2026-04-22 22:10 51.15559 -0.13303 1555 ft 210 kts 79°
2026-04-22 22:10 51.15888 -0.11036 2072 ft 210 kts 80°
2026-04-22 22:11 51.16212 -0.08770 2567 ft 209 kts 81°
2026-04-22 22:11 51.16531 -0.06490 3070 ft 213 kts 81°
2026-04-22 22:11 51.16848 -0.04163 3577 ft 217 kts 84°
2026-04-22 22:11 51.16889 -0.01760 4084 ft 219 kts 94°
2026-04-22 22:12 51.17076 0.00637 4616 ft 227 kts 70°
2026-04-22 22:12 51.18042 0.02672 5133 ft 238 kts 44°
2026-04-22 22:12 51.19361 0.04321 5697 ft 244 kts 41°
2026-04-22 22:12 51.20756 0.06019 6264 ft 261 kts 41°
2026-04-22 22:13 51.22219 0.07809 6841 ft 269 kts 41°
2026-04-22 22:13 51.23706 0.09643 7368 ft 274 kts 41°
2026-04-22 22:13 51.25233 0.11527 7929 ft 277 kts 41°
2026-04-22 22:13 51.26761 0.13409 8473 ft 279 kts 41°
2026-04-22 22:14 51.28307 0.15308 9026 ft 281 kts 41°
2026-04-22 22:14 51.29864 0.17219 9595 ft 283 kts 41°
2026-04-22 22:14 51.31415 0.19119 10152 ft 286 kts 41°
2026-04-22 22:14 51.33024 0.21019 10614 ft 289 kts 39°
2026-04-22 22:15 51.34656 0.22914 11127 ft 292 kts 39°
2026-04-22 22:15 51.36302 0.24842 11667 ft 296 kts 40°
2026-04-22 22:15 51.37992 0.26832 12228 ft 307 kts 40°
2026-04-22 22:15 51.39742 0.28900 12789 ft 318 kts 40°
2026-04-22 22:16 51.41555 0.31045 13277 ft 333 kts 40°
2026-04-22 22:16 51.43473 0.33317 13301 ft 351 kts 39°
2026-04-22 22:16 51.45457 0.35670 13343 ft 358 kts 39°
2026-04-22 22:16 51.47466 0.38057 13356 ft 361 kts 39°
2026-04-22 22:17 51.49486 0.40459 13381 ft 362 kts 39°
2026-04-22 22:17 51.51521 0.42881 13382 ft 367 kts 39°
2026-04-22 22:17 51.53586 0.45342 13389 ft 372 kts 39°
2026-04-22 22:17 51.55640 0.47793 13399 ft 373 kts 39°
2026-04-22 22:18 51.57724 0.50282 13383 ft 373 kts 39°
2026-04-22 22:18 51.59808 0.52776 13408 ft 374 kts 39°
2026-04-22 22:18 51.61896 0.55276 13561 ft 374 kts 39°
2026-04-22 22:18 51.64012 0.57813 13963 ft 383 kts 39°
2026-04-22 22:19 51.66173 0.60407 14337 ft 390 kts 39°
2026-04-22 22:19 51.68354 0.63028 14695 ft 393 kts 39°
2026-04-22 22:19 51.70536 0.65653 15045 ft 401 kts 39°
2026-04-22 22:19 51.72783 0.68356 15397 ft 406 kts 39°
2026-04-22 22:20 51.75053 0.71095 15747 ft 410 kts 39°
2026-04-22 22:20 51.77340 0.73869 16101 ft 412 kts 39°
2026-04-22 22:20 51.79628 0.76633 16487 ft 413 kts 39°
2026-04-22 22:20 51.81926 0.79443 16871 ft 413 kts 41°
2026-04-22 22:21 51.84133 0.82422 17249 ft 416 kts 42°
2026-04-22 22:21 51.86202 0.85691 17608 ft 413 kts 55°
2026-04-22 22:21 51.87550 0.89691 18001 ft 411 kts 71°
2026-04-22 22:21 51.88597 0.94010 18391 ft 415 kts 69°
2026-04-22 22:22 51.89689 0.98335 18775 ft 417 kts 69°
2026-04-22 22:22 51.90793 1.02666 19131 ft 416 kts 68°
2026-04-22 22:22 51.91897 1.06991 19485 ft 416 kts 68°
2026-04-22 22:22 51.93001 1.11319 19841 ft 418 kts 68°
2026-04-22 22:23 51.94115 1.15691 20213 ft 420 kts 68°
2026-04-22 22:23 51.95229 1.20074 20540 ft 421 kts 68°
2026-04-22 22:23 51.96347 1.24478 20912 ft 424 kts 68°
2026-04-22 22:23 51.97455 1.28853 21267 ft 426 kts 68°
2026-04-22 22:24 51.98581 1.33306 21644 ft 428 kts 68°
2026-04-22 22:24 51.99710 1.37783 22004 ft 430 kts 68°
2026-04-22 22:24 52.00846 1.42293 22367 ft 433 kts 67°
2026-04-22 22:24 52.01981 1.46812 22736 ft 435 kts 67°
2026-04-22 22:25 52.03124 1.51372 23097 ft 436 kts 66°
2026-04-22 22:25 52.04266 1.55934 23458 ft 435 kts 67°
2026-04-22 22:25 52.05386 1.60417 23834 ft 437 kts 67°
2026-04-22 22:25 52.06530 1.65009 24175 ft 438 kts 66°
2026-04-22 22:26 52.07672 1.69600 24490 ft 440 kts 66°
2026-04-22 22:26 52.08820 1.74226 24806 ft 441 kts 66°
2026-04-22 22:26 52.09965 1.78849 25129 ft 442 kts 66°
2026-04-22 22:26 52.11117 1.83509 25374 ft 446 kts 66°
2026-04-22 22:27 52.12280 1.88226 25423 ft 453 kts 66°
2026-04-22 22:27 52.13453 1.92994 25422 ft 455 kts 66°
2026-04-22 22:27 52.14626 1.97773 25435 ft 454 kts 66°
2026-04-22 22:27 52.15793 2.02535 25427 ft 452 kts 66°
2026-04-22 22:28 52.16936 2.07209 25425 ft 452 kts 66°
2026-04-22 22:28 52.18099 2.11978 25428 ft 451 kts 66°
2026-04-22 22:28 52.19256 2.16730 25433 ft 451 kts 66°
2026-04-22 22:28 52.20412 2.21487 25433 ft 451 kts 66°
2026-04-22 22:29 52.21563 2.26239 25429 ft 451 kts 66°
2026-04-22 22:29 52.22716 2.31005 25431 ft 451 kts 66°
2026-04-22 22:29 52.23865 2.35767 25429 ft 452 kts 66°
2026-04-22 22:29 52.25014 2.40536 25431 ft 451 kts 66°
2026-04-22 22:30 52.26144 2.45242 25433 ft 451 kts 66°
2026-04-22 22:30 52.27288 2.50010 25451 ft 450 kts 66°
2026-04-22 22:30 52.28427 2.54767 25439 ft 449 kts 66°
2026-04-22 22:30 52.29563 2.59516 25439 ft 449 kts 66°
2026-04-22 22:31 52.30676 2.64279 25436 ft 449 kts 69°
2026-04-22 22:31 52.31562 2.69180 25453 ft 450 kts 71°
2026-04-22 22:31 52.32432 2.74095 25439 ft 450 kts 71°
2026-04-22 22:31 52.33298 2.79014 25439 ft 450 kts 71°
2026-04-22 22:32 52.34162 2.83930 25438 ft 450 kts 71°
2026-04-22 22:32 52.35013 2.88790 25442 ft 450 kts 71°
2026-04-22 22:32 52.35874 2.93716 25441 ft 450 kts 71°
2026-04-22 22:32 52.36732 2.98642 25461 ft 450 kts 71°
2026-04-22 22:33 52.37588 3.03569 25444 ft 449 kts 71°
2026-04-22 22:33 52.38437 3.08467 25435 ft 448 kts 71°
2026-04-22 22:33 52.39285 3.13379 25437 ft 448 kts 71°
2026-04-22 22:33 52.40132 3.18292 25429 ft 448 kts 71°
2026-04-22 22:34 52.40975 3.23199 25436 ft 448 kts 71°
2026-04-22 22:34 52.41805 3.28044 25427 ft 448 kts 71°
2026-04-22 22:34 52.42645 3.32963 25429 ft 448 kts 71°
2026-04-22 22:34 52.43482 3.37871 25441 ft 448 kts 71°
2026-04-22 22:35 52.44318 3.42791 25432 ft 448 kts 71°
2026-04-22 22:35 52.45152 3.47714 25439 ft 448 kts 71°
2026-04-22 22:35 52.45983 3.52638 25448 ft 447 kts 71°
2026-04-22 22:35 52.46810 3.57548 25434 ft 447 kts 71°
2026-04-22 22:36 52.47636 3.62463 25430 ft 447 kts 71°
2026-04-22 22:36 52.48460 3.67383 25439 ft 447 kts 72°
2026-04-22 22:36 52.49282 3.72304 25441 ft 447 kts 72°
2026-04-22 22:36 52.50102 3.77226 25443 ft 447 kts 72°
2026-04-22 22:37 52.50909 3.82087 25448 ft 447 kts 72°
2026-04-22 22:37 52.51726 3.87017 25450 ft 448 kts 72°
2026-04-22 22:37 52.52537 3.91930 25448 ft 448 kts 72°
2026-04-22 22:37 52.53351 3.96875 25450 ft 448 kts 72°
2026-04-22 22:38 52.54162 4.01816 25461 ft 447 kts 72°
2026-04-22 22:38 52.54969 4.06741 25443 ft 446 kts 72°
2026-04-22 22:38 52.55774 4.11673 25440 ft 446 kts 72°
2026-04-22 22:38 52.56575 4.16596 25436 ft 446 kts 72°
2026-04-22 22:39 52.57363 4.21450 25429 ft 446 kts 72°
2026-04-22 22:39 52.58161 4.26388 25432 ft 446 kts 72°
2026-04-22 22:39 52.58957 4.31319 25432 ft 446 kts 72°
2026-04-22 22:39 52.59750 4.36251 25434 ft 446 kts 72°
2026-04-22 22:40 52.60542 4.41188 25428 ft 446 kts 72°
2026-04-22 22:40 52.61332 4.46128 25429 ft 446 kts 72°
2026-04-22 22:40 52.62120 4.51070 25429 ft 446 kts 72°
2026-04-22 22:40 52.62908 4.56029 25426 ft 450 kts 72°
2026-04-22 22:41 52.63700 4.61022 25421 ft 452 kts 73°
2026-04-22 22:41 52.64480 4.65963 25422 ft 452 kts 73°
2026-04-22 22:41 52.65280 4.71037 25423 ft 452 kts 73°
2026-04-22 22:41 52.66055 4.75972 25423 ft 452 kts 73°
2026-04-22 22:42 52.66839 4.80982 25424 ft 452 kts 73°
2026-04-22 22:42 52.67621 4.85991 25425 ft 452 kts 73°
2026-04-22 22:42 52.68402 4.91010 25428 ft 452 kts 73°
2026-04-22 22:42 52.69179 4.96018 25427 ft 452 kts 73°
2026-04-22 22:43 52.69956 5.01038 25435 ft 452 kts 73°
2026-04-22 22:43 52.70730 5.06059 25437 ft 452 kts 74°
2026-04-22 22:43 52.71502 5.11083 25436 ft 453 kts 74°
2026-04-22 22:43 52.72264 5.16052 25436 ft 453 kts 74°
2026-04-22 22:44 52.73033 5.21086 25436 ft 453 kts 74°
2026-04-22 22:44 52.73803 5.26112 25439 ft 452 kts 73°
2026-04-22 22:44 52.74815 5.31033 25453 ft 451 kts 69°
2026-04-22 22:44 52.75864 5.35891 25450 ft 452 kts 69°
2026-04-22 22:45 52.76919 5.40780 25439 ft 452 kts 69°
2026-04-22 22:45 52.77976 5.45685 25441 ft 452 kts 69°
2026-04-22 22:45 52.79028 5.50577 25438 ft 452 kts 69°
2026-04-22 22:45 52.80074 5.55458 25451 ft 452 kts 70°
2026-04-22 22:46 52.81121 5.60355 25439 ft 452 kts 70°
2026-04-22 22:46 52.82170 5.65268 25427 ft 452 kts 70°
2026-04-22 22:46 52.83319 5.70026 25423 ft 451 kts 62°
2026-04-22 22:46 52.84753 5.74636 25434 ft 452 kts 63°
2026-04-22 22:47 52.86140 5.79297 25430 ft 452 kts 64°
2026-04-22 22:47 52.87513 5.83989 25421 ft 452 kts 64°
2026-04-22 22:47 52.88871 5.88680 25427 ft 453 kts 64°
2026-04-22 22:47 52.90228 5.93390 25426 ft 453 kts 64°
2026-04-22 22:48 52.91582 5.98105 25427 ft 453 kts 65°
2026-04-22 22:48 52.92933 6.02817 25426 ft 453 kts 65°
2026-04-22 22:48 52.94110 6.06932 25428 ft 453 kts 65°
2026-04-22 22:48 52.95441 6.11589 25423 ft 453 kts 66°
2026-04-22 22:49 52.96792 6.16332 25418 ft 454 kts 66°
2026-04-22 22:49 52.98139 6.21068 25416 ft 454 kts 66°
2026-04-22 22:49 52.99482 6.25798 25418 ft 454 kts 66°
2026-04-22 22:49 53.00826 6.30543 25418 ft 454 kts 66°
2026-04-22 22:50 53.02163 6.35272 25419 ft 454 kts 66°
2026-04-22 22:50 53.03508 6.40037 25420 ft 454 kts 66°
2026-04-22 22:50 53.04846 6.44791 25417 ft 454 kts 66°
2026-04-22 22:50 53.06182 6.49545 25419 ft 454 kts 66°
2026-04-22 22:51 53.07499 6.54239 25402 ft 454 kts 66°
2026-04-22 22:51 53.08832 6.59007 25424 ft 454 kts 67°
2026-04-22 22:51 53.10162 6.63767 25426 ft 454 kts 67°
2026-04-22 22:51 53.11486 6.68519 25424 ft 454 kts 67°
2026-04-22 22:52 53.12815 6.73296 25425 ft 454 kts 67°
2026-04-22 22:52 53.14138 6.78060 25427 ft 454 kts 67°
2026-04-22 22:52 53.15461 6.82835 25423 ft 454 kts 67°
2026-04-22 22:52 53.16780 6.87610 25426 ft 454 kts 67°
2026-04-22 22:53 53.18083 6.92332 25423 ft 454 kts 68°
2026-04-22 22:53 53.19401 6.97119 25420 ft 454 kts 68°
2026-04-22 22:53 53.20714 7.01899 25419 ft 454 kts 68°
2026-04-22 22:53 53.22029 7.06694 25422 ft 455 kts 68°
2026-04-22 22:54 53.23345 7.11504 25338 ft 455 kts 68°
2026-04-22 22:54 53.24652 7.16292 25119 ft 453 kts 68°
2026-04-22 22:54 53.25960 7.21091 24930 ft 453 kts 67°
2026-04-22 22:54 53.27263 7.25883 24749 ft 453 kts 67°
2026-04-22 22:55 53.28546 7.30614 24577 ft 453 kts 67°
2026-04-22 22:55 53.29844 7.35407 24366 ft 453 kts 67°
2026-04-22 22:55 53.32431 7.44989 23897 ft 451 kts 67°
2026-04-22 22:56 53.33716 7.49766 23620 ft 450 kts 67°
2026-04-22 22:56 53.34998 7.54540 23327 ft 448 kts 67°
2026-04-22 22:56 53.36271 7.59293 23076 ft 447 kts 67°
2026-04-22 22:56 53.37538 7.64030 22805 ft 445 kts 67°
2026-04-22 22:57 53.38798 7.68753 22540 ft 444 kts 67°
2026-04-22 22:57 53.40039 7.73413 22286 ft 442 kts 67°
2026-04-22 22:57 53.41291 7.78123 22028 ft 443 kts 67°
2026-04-22 22:57 53.42540 7.82835 21777 ft 442 kts 67°
2026-04-22 22:58 53.43783 7.87529 21522 ft 441 kts 67°
2026-04-22 22:58 53.45022 7.92222 21271 ft 439 kts 67°
2026-04-22 22:58 53.46257 7.96906 21022 ft 438 kts 67°
2026-04-22 22:58 53.47486 8.01581 20769 ft 437 kts 67°
2026-04-22 22:59 53.48708 8.06239 20518 ft 434 kts 67°
2026-04-22 22:59 53.49921 8.10865 20271 ft 433 kts 67°
2026-04-22 22:59 53.51114 8.15430 20029 ft 431 kts 67°
2026-04-22 22:59 53.52317 8.20042 19792 ft 430 kts 66°
2026-04-22 23:00 53.53514 8.24638 19560 ft 429 kts 66°
2026-04-22 23:00 53.54706 8.29226 19317 ft 427 kts 66°
2026-04-22 23:00 53.55895 8.33812 19083 ft 428 kts 66°
2026-04-22 23:00 53.57081 8.38399 18850 ft 427 kts 66°
2026-04-22 23:01 53.58266 8.42986 18665 ft 428 kts 66°
2026-04-22 23:01 53.59447 8.47569 18469 ft 426 kts 66°
2026-04-22 23:01 53.60607 8.52079 18271 ft 425 kts 66°
2026-04-22 23:01 53.61776 8.56634 18057 ft 423 kts 66°
2026-04-22 23:02 53.62939 8.61176 17843 ft 422 kts 66°
2026-04-22 23:02 53.64096 8.65701 17634 ft 419 kts 66°
2026-04-22 23:02 53.65244 8.70202 17418 ft 418 kts 66°
2026-04-22 23:02 53.66390 8.74701 17211 ft 415 kts 66°
2026-04-22 23:03 53.67524 8.79167 17000 ft 414 kts 66°
2026-04-22 23:03 53.68656 8.83632 16797 ft 413 kts 66°
2026-04-22 23:03 53.69761 8.87998 16640 ft 398 kts 66°
2026-04-22 23:03 53.70840 8.92270 16445 ft 395 kts 66°
2026-04-22 23:04 53.71897 8.96461 16253 ft 392 kts 66°
2026-04-22 23:04 53.72962 9.00694 16049 ft 391 kts 65°
2026-04-22 23:04 53.74015 9.04887 15873 ft 385 kts 66°
2026-04-22 23:04 53.75055 9.09035 15620 ft 383 kts 66°
2026-04-22 23:05 53.76090 9.13171 15393 ft 381 kts 66°
2026-04-22 23:05 53.77117 9.17283 15360 ft 380 kts 66°
2026-04-22 23:05 53.78145 9.21411 15374 ft 381 kts 66°
2026-04-22 23:05 53.79170 9.25529 15343 ft 380 kts 66°
2026-04-22 23:06 53.80181 9.29601 15357 ft 381 kts 66°
2026-04-22 23:06 53.81189 9.33724 15346 ft 380 kts 69°
2026-04-22 23:06 53.81799 9.38093 15369 ft 382 kts 78°
2026-04-22 23:06 53.82319 9.42505 15339 ft 382 kts 77°
2026-04-22 23:07 53.82844 9.46883 15130 ft 376 kts 77°
2026-04-22 23:07 53.83361 9.51172 14848 ft 369 kts 77°
2026-04-22 23:07 53.83870 9.55394 14566 ft 362 kts 77°
2026-04-22 23:07 53.84365 9.59520 14333 ft 357 kts 77°
2026-04-22 23:08 53.84853 9.63588 14110 ft 357 kts 77°
2026-04-22 23:08 53.85346 9.67712 13850 ft 356 kts 77°
2026-04-22 23:08 53.85834 9.71819 13581 ft 356 kts 77°
2026-04-22 23:08 53.86307 9.75927 13321 ft 355 kts 81°
2026-04-22 23:09 53.86453 9.80066 13052 ft 346 kts 85°
2026-04-22 23:09 53.86572 9.84033 12791 ft 329 kts 85°
2026-04-22 23:09 53.86702 9.87838 12536 ft 319 kts 84°
2026-04-22 23:09 53.86839 9.91582 12292 ft 318 kts 84°
2026-04-22 23:10 53.86979 9.95274 12017 ft 317 kts 84°
2026-04-22 23:10 53.87121 9.98997 11716 ft 316 kts 84°
2026-04-22 23:10 53.87264 10.02699 11422 ft 315 kts 84°
2026-04-22 23:10 53.87405 10.06392 11128 ft 313 kts 84°
2026-04-22 23:11 53.87545 10.10072 10828 ft 312 kts 84°
2026-04-22 23:11 53.87682 10.13717 10529 ft 309 kts 84°
2026-04-22 23:11 53.87818 10.17330 10003 ft 305 kts 84°
2026-04-22 23:11 53.87950 10.20895 9424 ft 302 kts 84°
2026-04-22 23:12 53.88081 10.24433 8853 ft 300 kts 84°
2026-04-22 23:12 53.88381 10.27829 8283 ft 292 kts 65°
2026-04-22 23:12 53.89480 10.30620 7798 ft 281 kts 44°
2026-04-22 23:12 53.90743 10.33093 7386 ft 275 kts 47°
2026-04-22 23:13 53.91957 10.35547 6983 ft 269 kts 46°
2026-04-22 23:13 53.93148 10.37963 6567 ft 264 kts 46°
2026-04-22 23:13 53.94313 10.40336 6139 ft 260 kts 46°
2026-04-22 23:13 53.95461 10.42676 5712 ft 256 kts 46°
2026-04-22 23:14 53.96587 10.44973 5300 ft 252 kts 46°
2026-04-22 23:14 53.97472 10.47520 4839 ft 256 kts 72°
2026-04-22 23:14 53.97375 10.50511 4480 ft 258 kts 110°
2026-04-22 23:14 53.96333 10.52845 4182 ft 253 kts 144°
2026-04-22 23:15 53.94754 10.53916 3927 ft 239 kts 177°
2026-04-22 23:15 53.93213 10.53557 3826 ft 210 kts 208°
2026-04-22 23:15 53.92108 10.52239 3599 ft 183 kts 232°
2026-04-22 23:15 53.91280 10.50732 3337 ft 169 kts 233°
2026-04-22 23:16 53.90467 10.49267 3280 ft 171 kts 234°
2026-04-22 23:16 53.89662 10.47758 3329 ft 176 kts 235°
2026-04-22 23:16 53.88854 10.46153 3372 ft 181 kts 237°
2026-04-22 23:16 53.88046 10.44473 3363 ft 186 kts 237°
2026-04-22 23:17 53.87367 10.42699 3321 ft 179 kts 256°
2026-04-22 23:17 53.87180 10.40673 3308 ft 171 kts 279°
2026-04-22 23:17 53.87472 10.38766 3322 ft 166 kts 300°
2026-04-22 23:17 53.88186 10.37208 3358 ft 170 kts 321°
2026-04-22 23:18 53.89221 10.36218 3357 ft 173 kts 341°
2026-04-22 23:18 53.90416 10.35976 3335 ft 176 kts
2026-04-22 23:18 53.91604 10.36540 3337 ft 181 kts 22°
2026-04-22 23:18 53.92621 10.37848 3332 ft 186 kts 38°
2026-04-22 23:19 53.93538 10.39402 3330 ft 187 kts 41°
2026-04-22 23:19 53.94138 10.41378 3290 ft 193 kts 72°
2026-04-22 23:19 53.94119 10.43653 3303 ft 201 kts 99°
2026-04-22 23:19 53.93496 10.45807 3334 ft 206 kts 120°
2026-04-22 23:20 53.92703 10.47865 3357 ft 206 kts 120°
2026-04-22 23:20 53.91696 10.49587 3294 ft 208 kts 149°
2026-04-22 23:20 53.90341 10.50270 3267 ft 207 kts 180°
2026-04-22 23:20 53.88964 10.49831 3174 ft 200 kts 211°
2026-04-22 23:21 53.87849 10.48511 3088 ft 194 kts 230°
2026-04-22 23:21 53.87020 10.46761 3014 ft 189 kts 241°
2026-04-22 23:21 53.86143 10.45069 2985 ft 192 kts 232°
2026-04-22 23:21 53.85201 10.43456 2982 ft 193 kts 231°
2026-04-22 23:22 53.84271 10.41822 2972 ft 192 kts 233°
2026-04-22 23:22 53.83379 10.40147 2972 ft 192 kts 235°
2026-04-22 23:22 53.82508 10.38441 2972 ft 191 kts 236°
2026-04-22 23:22 53.81661 10.36746 2966 ft 191 kts 236°
2026-04-22 23:23 53.80822 10.35074 2955 ft 184 kts 236°
2026-04-22 23:23 53.79998 10.33441 2952 ft 181 kts 236°
2026-04-22 23:23 53.79228 10.31903 2960 ft 181 kts 236°
2026-04-22 23:23 53.78446 10.30340 2975 ft 181 kts 236°
2026-04-22 23:24 53.77660 10.28687 2999 ft 180 kts 238°
2026-04-22 23:24 53.76876 10.27028 2994 ft 180 kts 237°
2026-04-22 23:24 53.76104 10.25431 2977 ft 181 kts 237°
2026-04-22 23:24 53.75303 10.23785 2989 ft 180 kts 237°
2026-04-22 23:25 53.74533 10.22213 2975 ft 173 kts 237°
2026-04-22 23:25 53.73774 10.20663 2959 ft 170 kts 237°
2026-04-22 23:25 53.73024 10.19134 2852 ft 168 kts 237°
2026-04-22 23:25 53.72281 10.17617 2435 ft 168 kts 237°
2026-04-22 23:26 53.71534 10.16098 2047 ft 163 kts 238°
2026-04-22 23:26 53.70764 10.14669 1949 ft 166 kts 232°
2026-04-22 23:26 53.69997 10.13230 1766 ft 164 kts 237°
2026-04-22 23:26 53.69295 10.11754 1639 ft 160 kts 239°
2026-04-22 23:27 53.68854 10.10765 1571 ft 159 kts 241°
2026-04-22 23:27 53.68179 10.09280 1421 ft 159 kts 237°
2026-04-22 23:27 53.67468 10.07883 1205 ft 156 kts 236°
2026-04-22 23:27 53.66570 10.06030 950 ft 151 kts 237°
2026-04-22 23:28 53.65933 10.04680 806 ft 146 kts 233°
2026-04-22 23:28 53.65275 10.03396 536 ft 147 kts 233°
2026-04-22 23:28 53.64850 10.02483 463 ft 149 kts 232°
2026-04-22 23:28 53.63958 10.00711 220 ft 147 kts 234°
2026-04-22 23:29 53.63545 9.99868 91 ft 134 kts 235°
2026-04-22 23:29 53.63010 9.98761 48 ft 104 kts 230°
2026-04-22 23:29 53.62671 9.98079 44 ft 53 kts 230°
2026-04-22 23:29 53.62521 9.97786 41 ft 28 kts 209°
2026-04-22 23:30 53.62431 9.97852 46 ft 6 kts 116°
2026-04-22 23:30 53.62427 9.97892 48 ft 5 kts 88°
2026-04-22 23:30 53.62431 9.97940 49 ft 4 kts 81°
2026-04-22 23:30 53.62436 9.97984 46 ft 5 kts 79°
2026-04-22 23:31 53.62446 9.98018 48 ft 0 kts 52°
2026-04-22 23:31 53.62447 9.98021 48 ft 2 kts 64°
2026-04-22 23:31 53.62468 9.98096 49 ft 13 kts 62°
2026-04-22 23:31 53.62546 9.98261 49 ft 21 kts 51°
2026-04-22 23:32 53.62611 9.98394 49 ft 14 kts 50°
2026-04-22 23:32 53.62684 9.98542 49 ft 15 kts 50°
2026-04-22 23:32 53.62753 9.98680 49 ft 19 kts 50°
2026-04-22 23:32 53.62809 9.98794 49 ft 12 kts 51°
2026-04-22 23:33 53.62846 9.98894 49 ft 7 kts 94°
2026-04-22 23:33 53.62814 9.98944 49 ft 10 kts 150°
2026-04-22 23:33 53.62752 9.99005 49 ft 9 kts 128°
2026-04-22 23:33 53.62772 9.99104 49 ft 12 kts 61°
2026-04-22 23:34 53.62786 9.99153 47 ft 0 kts 64°